This is the latest recevied weather packets stored in our database for station/object N1PRS-9. If no packets are shown the sender has not sent any weather packets the latest 10 day(s).
| Time | Temp. | Humidity | Pressure | Rain* | Wind** | Luminosity | Snow |
|---|---|---|---|---|---|---|---|
| 1777896331 | 10.56° C | 59% | 1012.7 hPa | 0 mm | - | 33 W/m² | - |
| 1777895435 | 10° C | 59% | 1012.8 hPa | 0 mm | - | 33 W/m² | - |
| 1777894531 | 9.44° C | 61% | 1012.7 hPa | 0 mm | - | 30 W/m² | - |
| 1777893343 | 8.89° C | 63% | 1012.7 hPa | 0 mm | - | 26 W/m² | - |
| 1777892131 | 8.33° C | 64% | 1012.6 hPa | 0 mm | - | 40 W/m² | - |
| 1777890931 | 7.78° C | 63% | 1012.5 hPa | 0 mm | - | 21 W/m² | - |
| 1777888235 | 7.78° C | 62% | 1012 hPa | 0 mm | - | 0 W/m² | - |
| 1777886732 | 7.78° C | 61% | 1011.8 hPa | 0 mm | - | 0 W/m² | - |
| 1777886139 | 7.78° C | 62% | 1011.8 hPa | 0 mm | - | 0 W/m² | - |
| 1777884630 | 7.78° C | 62% | 1011.8 hPa | 0 mm | - | 0 W/m² | - |
| 1777884345 | 7.78° C | 61% | 1011.7 hPa | 0 mm | - | 0 W/m² | - |
| 1777884030 | 7.78° C | 61% | 1011.7 hPa | 0 mm | - | 0 W/m² | - |
| 1777883732 | 7.78° C | 61% | 1011.7 hPa | 0 mm | - | 0 W/m² | - |
| 1777881931 | 7.22° C | 63% | 1011.5 hPa | 0 mm | - | 0 W/m² | - |
| 1777878044 | 6.67° C | 72% | 1011.8 hPa | 0 mm | - | 0 W/m² | - |
| 1777877147 | 6.67° C | 73% | 1011.6 hPa | 0 mm | - | 0 W/m² | - |
| 1777875345 | 6.67° C | 73% | 1011.8 hPa | 0 mm | - | 0 W/m² | - |
| 1777874131 | 6.11° C | 69% | 1011.8 hPa | 0 mm | - | 0 W/m² | - |
| 1777873539 | 5.56° C | 71% | 1012 hPa | 0 mm | - | 0 W/m² | - |
| 1777871133 | 5.56° C | 65% | 1012 hPa | 0 mm | - | 0 W/m² | - |
| 1777870537 | 5.56° C | 64% | 1012 hPa | 0 mm | - | 0 W/m² | - |
| 1777869945 | 5.56° C | 65% | 1012 hPa | 0 mm | - | 0 W/m² | - |
| 1777869333 | 5.56° C | 67% | 1012 hPa | 0 mm | - | 0 W/m² | - |
| 1777868143 | 5.56° C | 68% | 1012 hPa | 0 mm | - | 0 W/m² | - |
| 1777867833 | 5.56° C | 67% | 1012 hPa | 0 mm | - | 0 W/m² | - |
* Rain latest hour (hover to see other rain measurements)
** Current wind speed in m/s (hover to see current wind gust speed)